2023/01/28 00:00:00,58.6,-1.6
2023/01/28 00:10:00,59.2,-1.6
2023/01/28 00:20:00,59.4,-1.3
2023/01/28 00:30:00,59.4,-1.6
2023/01/28 00:40:00,60.3,-1.4
2023/01/28 00:50:00,61.3,-1.7
2023/01/28 01:00:00,62.3,-1.7
2023/01/28 01:10:00,63.0,-1.7
2023/01/28 01:20:00,63.5,-1.7
2023/01/28 01:30:00,63.7,-1.5
2023/01/28 01:40:00,64.6,-1.5
2023/01/28 01:50:00,65.6,-1.9
2023/01/28 02:00:00,66.6,-1.6
2023/01/28 02:10:00,67.2,-1.7
2023/01/28 02:20:00,67.7,-1.7
2023/01/28 02:30:00,67.8,-1.8
2023/01/28 02:40:00,67.6,-2.0
2023/01/28 02:50:00,68.1,-1.9
2023/01/28 03:00:00,68.9,-2.1
2023/01/28 03:10:00,69.5,-2.2
2023/01/28 03:20:00,69.7,-2.1
2023/01/28 03:30:00,69.9,-2.1
2023/01/28 03:40:00,70.7,-2.2
2023/01/28 03:50:00,71.6,-2.1
2023/01/28 04:00:00,72.3,-2.1
2023/01/28 04:10:00,73.2,-2.1
2023/01/28 04:20:00,73.8,-2.0
2023/01/28 04:30:00,74.2,-2.1
2023/01/28 04:40:00,74.0,-2.3
2023/01/28 04:50:00,73.8,-2.4
2023/01/28 05:00:00,74.2,-2.3
2023/01/28 05:10:00,74.8,-2.3
2023/01/28 05:20:00,75.5,-2.2
2023/01/28 05:30:00,76.1,-2.2
2023/01/28 05:40:00,76.4,-2.3
2023/01/28 05:50:00,76.1,-2.1
2023/01/28 06:00:00,76.5,-2.4
2023/01/28 06:10:00,76.7,-2.3
2023/01/28 06:20:00,77.3,-2.2
2023/01/28 06:30:00,78.4,-1.9
2023/01/28 06:40:00,79.0,-2.3
2023/01/28 06:50:00,79.4,-2.3
2023/01/28 07:00:00,79.7,-2.4
2023/01/28 07:10:00,80.0,-2.3
2023/01/28 07:20:00,81.4,-2.4
2023/01/28 07:30:00,82.4,-2.2
2023/01/28 07:40:00,83.6,-2.2
2023/01/28 07:50:00,85.0,-2.3
2023/01/28 08:00:00,85.9,-1.9
2023/01/28 08:10:00,86.0,-1.9
2023/01/28 08:20:00,86.3,-1.0
2023/01/28 08:30:00,86.3,-1.1
2023/01/28 08:40:00,86.6,-1.6
2023/01/28 08:50:00,86.9,-1.9
2023/01/28 09:00:00,87.1,-1.7
2023/01/28 09:10:00,87.0,-1.0
2023/01/28 09:20:00,86.9,-1.2
2023/01/28 09:30:00,87.3,-0.7
2023/01/28 09:40:00,88.0,-1.1
2023/01/28 09:50:00,89.0,-1.5
2023/01/28 10:00:00,---,-1.4
2023/01/28 10:10:00,91.2,-1.3
2023/01/28 10:20:00,91.5,-0.4
2023/01/28 10:30:00,91.4, 0.6
2023/01/28 10:40:00,91.1, 0.0
2023/01/28 10:50:00,91.4,-0.7
2023/01/28 11:00:00,92.0,-0.9
2023/01/28 11:10:00,92.7,-0.2
2023/01/28 11:20:00,93.6, 0.4
2023/01/28 11:30:00,93.8, 1.8
2023/01/28 11:40:00,93.7, 1.6
2023/01/28 11:50:00,93.3, 1.4
2023/01/28 12:00:00,93.2, 0.7
2023/01/28 12:10:00,93.3,-0.7
2023/01/28 12:20:00,93.8, 0.0
2023/01/28 12:30:00,94.6,-0.4
2023/01/28 12:40:00,95.2, 0.4
2023/01/28 12:50:00,95.9, 0.9
2023/01/28 13:00:00,95.9, 0.3
2023/01/28 13:10:00,96.2,-0.1
2023/01/28 13:20:00,96.6, 0.8
2023/01/28 13:30:00,96.8, 0.5
2023/01/28 13:40:00,96.6, 0.9
2023/01/28 13:50:00,96.7,-0.3
2023/01/28 14:00:00,97.1,-0.7
2023/01/28 14:10:00,97.9,-0.9
2023/01/28 14:20:00,99.0,-1.3
2023/01/28 14:30:00,100.0,-1.2
2023/01/28 14:40:00,101.3,-1.3
2023/01/28 14:50:00,102.2,-1.0
2023/01/28 15:00:00,102.9,-0.7
2023/01/28 15:10:00,103.1,-0.4
2023/01/28 15:20:00,102.6,-1.1
2023/01/28 15:30:00,102.5,-1.1
2023/01/28 15:40:00,102.3,-0.7
2023/01/28 15:50:00,102.1,-0.4
2023/01/28 16:00:00,101.7, 0.1
2023/01/28 16:10:00,101.4, 0.0
2023/01/28 16:20:00,101.0,-0.6
2023/01/28 16:30:00,100.8,-0.8
2023/01/28 16:40:00,100.6,-1.2
2023/01/28 16:50:00,100.4,-1.5
2023/01/28 17:00:00,100.2,-1.3
2023/01/28 17:10:00,100.0,-1.7
2023/01/28 17:20:00,99.6,-2.1
2023/01/28 17:30:00,99.5,-2.2
2023/01/28 17:40:00,99.4,-2.1
2023/01/28 17:50:00,99.4,-2.3
2023/01/28 18:00:00,99.3,-2.3
2023/01/28 18:10:00,99.1,-2.3
2023/01/28 18:20:00,98.8,-2.5
2023/01/28 18:30:00,98.7,-2.7
2023/01/28 18:40:00,98.5,-3.0
2023/01/28 18:50:00,98.8,-3.0
2023/01/28 19:00:00,99.1,-3.1
2023/01/28 19:10:00,98.8,-2.9
2023/01/28 19:20:00,98.8,-3.3
2023/01/28 19:30:00,98.7,-3.2
2023/01/28 19:40:00,98.7,-3.2
2023/01/28 19:50:00,98.6,-3.2
2023/01/28 20:00:00,98.8,-3.4
2023/01/28 20:10:00,98.6,-3.2
2023/01/28 20:20:00,98.5,-3.4
2023/01/28 20:30:00,98.8,-3.4
2023/01/28 20:40:00,99.0,-3.5
2023/01/28 20:50:00,99.4,-3.4
2023/01/28 21:00:00,99.3,-3.5
2023/01/28 21:10:00,99.5,-3.4
2023/01/28 21:20:00,99.9,-3.3
2023/01/28 21:30:00,100.1,-3.4
2023/01/28 21:40:00,100.1,-3.5
2023/01/28 21:50:00,100.2,-3.3
2023/01/28 22:00:00,100.3,-3.4
2023/01/28 22:10:00,100.1,-3.2
2023/01/28 22:20:00,100.1,-3.2
2023/01/28 22:30:00,99.8,-3.4
2023/01/28 22:40:00,99.6,-3.2
2023/01/28 22:50:00,99.4,-3.2
2023/01/28 23:00:00,99.7,-3.4
2023/01/28 23:10:00,100.8,-3.2
2023/01/28 23:20:00,101.3,-3.4
2023/01/28 23:30:00,101.1,-3.3
2023/01/28 23:40:00,101.3,-3.5
2023/01/28 23:50:00,102.3,-3.4
